Wind_Speed
31 28 26 22 18 17 16 14 13 12 12 12 12 13 13 14 15 15 15 16 17 19 20 21 22 22 22 22 22 22 22 22 22 22 22 23 21 19 18 17 15 14 13 12 11 11 11 11 10 10 9 9 8 7 6 6 5 5 5 4 3 3 2 2 1 1 1 1 1 2 3 4 4 4 4 4 5 4 4 4 4 5 5 4 4
30 28 26 21 17 17 16 15 13 12 12 12 12 12 13 13 14 14 15 17 18 19 21 22 22 22 22 21 22 21 21 21 22 22 22 22 21 19 18 16 15 14 13 12 11 11 10 10 10 9 9 8 8 7 7 6 6 5 5 4 4 3 3 2 2 1 1 1 2 2 3 4 4 4 4 4 4 4 4 4 4 5 5 5 4
28 26 24 20 17 17 17 16 13 11 12 12 12 12 12 13 13 14 16 17 19 20 21 22 22 22 22 21 21 20 20 21 21 21 21 22 20 19 18 16 15 13 12 11 11 10 10 9 9 8 8 7 7 7 7 7 6 6 5 5 5 4 4 3 2 1 1 1 2 2 3 3 4 4 4 4 4 4 4 4 4 4 4 4 5
25 24 22 19 17 17 17 16 12 11 11 12 11 11 12 12 13 14 16 18 19 21 22 22 22 22 21 21 20 20 19 20 20 21 21 21 20 19 18 16 15 13 12 11 11 10 9 8 8 8 7 7 7 7 7 7 7 7 6 6 5 4 4 3 3 2 1 1 2 2 2 3 3 3 3 3 3 3 3 3 4 4 4 5 5
24 22 20 19 18 17 16 15 11 10 11 11 11 11 12 12 12 14 16 18 20 21 22 22 22 21 21 20 20 19 19 19 19 20 21 21 20 19 18 16 14 13 12 11 11 10 9 8 8 8 7 7 7 8 8 8 7 7 7 6 5 5 4 3 2 2 0 1 1 2 1 2 2 2 2 2 2 3 3 3 3 3 4 5 5
23 21 20 19 17 16 16 14 10 10 11 11 11 12 11 12 13 14 16 18 19 21 22 22 21 21 20 20 19 19 18 18 19 19 20 20 19 17 17 16 14 13 12 11 10 10 9 9 8 8 8 7 8 8 8 8 8 8 8 7 6 5 5 4 2 1 0 1 1 1 1 1 1 1 1 1 1 2 2 2 2 3 4 4 4
22 21 20 19 17 15 15 12 10 10 10 10 11 12 11 12 13 14 16 18 19 20 21 21 20 20 20 19 19 18 18 18 18 18 19 19 17 16 15 15 14 13 12 11 11 10 9 9 9 8 8 8 8 8 8 8 9 9 9 8 6 5 5 4 2 1 0 1 1 1 0 1 1 0 1 1 1 1 2 2 2 3 4 4 4
21 21 20 18 16 15 13 11 10 10 10 11 12 12 11 12 13 14 16 17 19 20 20 20 19 19 19 19 18 18 17 17 17 18 18 18 16 15 14 14 13 12 11 11 11 10 9 9 9 8 8 8 7 8 8 8 9 9 9 8 6 5 4 3 1 0 1 1 1 0 0 0 1 1 1 1 2 2 2 2 3 3 4 4 5
20 19 18 17 15 14 12 11 10 10 10 11 11 11 11 12 13 14 16 17 18 19 19 19 18 18 18 18 18 17 16 16 16 17 18 17 15 14 14 14 13 12 11 10 10 9 9 9 8 8 8 8 7 7 8 8 8 9 9 7 6 5 4 2 1 1 1 1 1 0 0 1 1 2 3 3 2 3 3 3 4 4 5 5 5
18 17 16 15 15 13 11 10 10 10 11 11 11 11 11 12 12 14 15 16 17 18 18 18 17 17 17 17 16 16 15 15 15 16 17 16 14 13 13 13 12 11 11 10 9 9 8 8 8 8 7 7 7 7 7 8 8 9 8 7 5 4 3 2 1 1 1 1 1 1 0 1 3 3 4 4 4 4 4 4 4 5 6 6 6
17 16 15 15 14 13 11 11 10 10 11 11 11 11 11 12 12 13 14 15 16 17 17 17 17 16 16 16 16 15 14 14 14 15 16 14 12 12 13 12 11 11 10 10 9 9 8 8 8 7 7 7 7 7 7 7 8 8 8 7 5 3 2 2 2 2 2 2 2 1 1 2 3 4 5 5 5 5 5 5 5 6 6 7 7
16 15 15 14 13 12 11 11 11 11 12 12 11 11 11 12 13 13 14 15 15 17 17 17 17 16 15 15 15 14 13 13 13 14 14 12 11 11 12 11 11 10 10 10 9 9 8 8 8 7 7 7 7 7 7 7 7 8 7 7 5 4 2 2 2 4 4 3 2 1 1 2 4 5 5 6 6 5 5 5 5 6 6 7 7
17 15 15 14 13 12 11 11 12 12 13 12 11 11 12 13 13 14 14 15 16 17 18 18 17 16 15 15 14 14 13 12 12 13 12 11 11 11 11 11 10 10 10 10 10 9 9 8 8 8 8 7 8 8 7 7 7 7 7 6 5 4 3 2 3 5 5 4 2 2 2 3 4 6 6 6 6 6 6 6 6 6 6 7 8
16 15 14 13 12 12 12 12 13 13 13 12 12 13 14 14 14 14 15 16 18 19 19 19 18 17 16 15 15 14 13 12 12 12 11 10 10 10 11 11 11 11 11 11 10 10 9 9 8 8 8 7 7 7 7 7 7 7 7 6 5 3 3 2 3 4 5 3 3 3 4 5 6 7 7 7 7 7 7 7 6 6 7 7 8
15 14 14 13 13 13 13 13 14 14 14 13 13 14 14 15 15 16 17 18 20 21 21 20 20 19 17 16 16 15 14 12 12 11 11 10 10 10 10 11 11 12 11 10 10 10 9 9 8 8 8 8 7 7 7 7 7 7 7 6 5 4 3 3 3 4 4 4 4 5 5 7 7 8 9 9 8 8 7 7 7 6 7 8 8
15 14 14 14 13 13 14 14 15 15 15 14 14 14 15 15 15 17 18 20 22 22 22 21 21 20 18 17 17 16 15 13 11 11 10 9 9 10 10 11 11 12 12 11 10 10 9 9 9 9 9 8 8 7 7 7 7 7 7 7 6 5 4 4 4 4 5 5 5 6 7 8 8 9 10 10 9 9 8 8 8 7 7 8 8
15 14 14 14 14 14 14 15 15 15 15 15 14 15 15 15 16 17 19 21 21 22 22 21 21 20 18 17 17 16 16 14 12 11 11 10 10 10 11 11 11 11 11 11 10 10 9 8 9 9 9 9 8 8 8 8 7 7 7 8 7 6 5 5 5 5 5 6 6 7 8 9 9 10 10 10 10 10 9 9 8 7 7 8 9
15 14 14 14 14 14 15 15 16 16 16 15 15 15 15 15 16 17 19 20 20 20 21 21 20 19 17 16 17 16 15 14 13 11 11 11 10 10 11 11 11 11 10 10 10 10 8 8 8 8 9 9 9 8 8 7 6 6 7 8 8 7 6 6 6 6 6 6 7 9 9 10 10 10 10 10 10 10 10 9 9 8 8 9 10
15 14 15 15 15 15 16 16 16 16 16 16 15 15 15 15 16 18 19 18 19 20 20 19 18 17 16 16 16 15 14 14 13 11 10 10 10 10 11 11 11 11 11 10 11 11 9 8 7 7 8 9 9 8 8 7 5 6 8 8 7 7 7 6 6 6 6 7 8 9 10 10 10 10 10 11 11 10 10 10 9 9 9 10 11
15 15 15 15 15 16 16 16 16 16 16 16 15 15 15 15 16 17 17 17 19 20 19 18 16 15 15 17 16 14 13 12 12 11 10 9 9 10 10 10 11 11 11 11 12 12 10 8 7 7 8 8 8 9 8 7 6 6 8 8 8 8 8 7 6 6 7 7 8 9 10 10 10 11 11 11 11 10 11 10 10 10 10 11 11
16 16 16 16 16 16 16 16 16 16 16 16 15 15 14 14 15 15 16 16 18 19 18 16 14 14 16 17 16 13 12 12 11 11 10 10 9 9 9 9 10 11 11 12 12 12 10 9 8 7 8 8 8 8 9 9 7 6 8 8 8 9 9 8 7 7 7 7 8 9 10 10 10 11 11 10 10 11 11 11 11 11 12 12 12
16 16 16 16 15 16 16 15 15 15 15 15 15 14 12 12 13 13 14 16 18 18 17 15 13 14 16 16 14 12 12 11 10 10 11 11 9 8 8 9 10 11 12 12 12 11 9 9 8 8 8 9 8 8 9 10 9 8 8 9 8 9 10 9 9 9 8 8 8 8 9 10 10 11 11 10 10 11 12 12 13 13 13 13 13
16 15 15 14 14 14 14 13 13 13 14 13 12 11 11 11 11 12 14 16 17 17 16 14 14 15 16 15 14 12 12 10 9 10 12 11 10 9 10 11 12 12 12 12 11 10 10 9 9 8 8 9 9 8 8 9 11 9 9 10 10 10 11 10 10 10 9 9 8 8 9 10 11 11 11 11 11 12 13 14 14 13 13 14 14
15 15 14 13 13 13 13 12 11 11 11 11 10 10 10 10 10 11 14 16 18 18 16 15 15 16 15 13 12 12 11 10 10 11 12 11 11 11 11 12 12 13 13 12 11 10 10 9 8 8 8 8 9 9 9 9 11 11 10 10 11 11 12 11 11 10 10 10 9 9 9 10 11 11 11 12 12 13 14 14 14 13 13 14 14
14 13 13 13 13 14 13 11 9 9 9 10 10 9 8 8 9 12 15 17 19 18 16 16 16 15 13 12 11 11 12 12 11 11 11 11 11 12 12 13 13 13 13 13 12 11 10 10 9 9 9 9 9 9 10 10 10 11 10 10 11 11 12 12 12 11 11 11 11 10 10 10 11 11 12 12 12 13 13 13 13 13 12 13 14
13 13 12 13 13 13 13 10 9 10 10 10 9 8 7 8 10 12 15 17 19 18 16 16 16 15 13 11 11 12 12 13 12 10 9 11 11 12 12 12 13 13 14 14 13 12 11 11 11 10 10 9 9 9 10 11 11 11 11 11 11 12 12 12 12 12 12 12 12 11 11 11 11 12 12 12 13 13 13 13 13 12 12 13 14
14 13 13 12 13 13 13 12 11 10 10 10 9 8 8 9 11 13 15 17 18 18 17 17 17 16 13 11 12 13 14 13 12 10 10 10 11 12 12 12 13 14 14 15 14 14 13 12 12 12 11 11 10 9 9 11 11 12 13 13 13 13 13 12 12 12 12 12 12 12 12 11 12 12 13 14 14 13 13 13 13 13 13 13 14
16 14 13 12 12 13 14 13 13 11 11 11 9 8 8 10 11 13 15 18 19 19 17 17 17 15 13 12 13 14 14 13 12 12 12 11 11 12 12 12 13 14 15 16 15 15 14 13 13 13 12 12 12 12 11 11 12 12 13 14 14 15 15 14 12 12 13 13 13 13 12 12 12 13 14 14 14 14 13 13 13 13 13 13 13
15 14 12 11 11 12 14 15 14 13 13 12 9 8 8 10 12 14 16 19 20 19 17 16 16 14 12 11 13 14 12 10 10 12 12 11 11 11 11 12 13 15 16 16 16 16 15 14 14 14 13 13 13 14 14 14 13 12 12 14 15 15 16 16 14 13 14 14 14 13 13 12 13 13 14 14 14 14 13 13 13 13 13 13 13
13 13 12 11 11 12 13 14 15 14 14 12 9 9 9 10 12 15 17 18 19 18 17 16 15 13 10 10 12 13 11 9 10 11 10 9 10 10 10 11 13 15 16 17 17 17 17 15 14 14 14 14 13 14 15 16 15 13 12 13 14 16 17 18 17 16 16 16 15 13 13 13 13 14 14 15 14 13 13 13 12 13 13 13 13
12 12 11 11 10 11 11 13 14 14 14 12 10 10 9 9 12 15 16 18 18 18 17 16 15 12 9 9 11 12 10 10 10 10 9 9 10 10 10 12 14 16 16 16 18 18 18 17 15 14 14 14 14 14 16 16 16 16 14 13 13 15 17 19 20 19 18 18 16 14 13 13 14 15 15 15 15 14 13 13 13 13 13 13 13
11 10 11 11 11 10 10 11 12 13 12 11 11 10 8 10 12 14 16 17 17 17 17 16 15 12 10 10 10 10 9 8 8 8 8 10 12 12 12 13 15 15 15 16 18 18 18 18 17 15 15 15 15 15 16 16 16 17 17 16 15 15 17 18 20 21 21 19 18 16 14 13 13 15 15 15 15 14 13 13 13 13 14 14 13
11 10 10 10 10 11 11 10 10 11 11 11 11 9 9 11 13 14 15 16 16 16 16 16 15 13 11 10 10 10 9 8 8 8 9 11 14 15 14 15 15 15 15 16 18 19 19 20 19 18 17 17 17 17 16 16 17 17 18 19 18 17 17 17 18 21 22 22 19 17 15 14 13 14 15 16 16 16 14 14 14 13 14 14 13
13 12 11 10 10 10 11 11 12 13 13 12 11 10 11 13 13 14 14 15 15 15 15 15 14 14 13 12 11 11 11 10 10 11 11 11 13 15 16 16 15 14 15 16 18 19 20 21 21 20 20 19 19 18 17 16 16 18 19 19 19 17 17 17 18 19 22 23 21 19 18 16 14 15 15 16 16 16 15 14 14 14 14 15 14
14 13 11 10 10 10 11 12 14 16 16 14 13 13 13 14 14 14 13 14 15 14 14 14 14 14 13 13 12 12 12 13 13 14 13 12 12 13 14 15 16 16 16 17 17 18 20 22 22 22 22 21 20 20 19 17 17 20 20 19 21 21 20 19 18 19 21 22 21 21 21 19 16 15 15 16 16 17 16 15 15 14 15 15 14
14 13 12 12 11 11 11 13 15 16 16 16 15 15 14 14 14 14 13 14 14 14 14 14 13 13 13 13 13 13 13 14 15 15 15 14 13 12 12 12 14 15 16 15 16 17 19 21 22 23 24 23 22 21 21 20 20 22 21 20 21 22 23 24 21 20 21 20 21 22 22 20 18 16 16 17 17 17 17 16 15 15 15 15 15
16 15 15 14 13 12 10 11 12 13 15 16 16 16 15 14 14 15 15 15 14 13 14 14 13 13 13 13 13 13 13 14 15 15 16 15 14 13 12 11 12 13 14 15 17 18 18 19 20 21 23 24 24 23 23 22 22 23 22 20 19 19 22 26 25 23 22 20 21 23 22 21 18 17 18 18 18 18 17 16 16 15 15 15 16
18 17 16 15 14 12 9 7 8 10 15 16 16 16 16 15 15 15 15 15 14 14 14 14 14 14 13 14 13 12 12 14 14 15 16 16 15 15 14 13 13 13 14 16 18 18 18 18 19 19 21 23 24 24 24 24 23 23 22 21 21 20 21 24 25 25 24 22 23 24 24 22 20 19 19 20 19 18 18 17 16 16 16 16 16
17 17 16 15 14 12 10 8 7 9 13 14 14 14 15 15 15 15 15 15 15 15 15 15 16 15 14 14 13 12 11 13 14 15 16 16 16 15 16 15 15 16 16 18 19 19 19 19 19 20 20 21 22 23 23 24 25 24 23 22 22 22 21 22 23 24 25 24 25 26 26 25 23 21 20 20 19 18 19 18 17 17 16 16 16
16 15 15 15 14 12 11 11 10 10 12 13 14 13 14 15 16 17 16 16 15 16 16 16 16 15 15 14 14 13 12 13 14 15 16 16 16 16 17 17 17 17 18 19 20 20 20 19 20 21 21 21 22 23 23 24 25 25 24 23 22 22 22 22 22 23 24 25 26 27 27 27 27 24 22 21 20 19 20 19 18 17 17 17 17
17 16 15 15 15 14 14 14 14 13 14 16 15 14 14 15 17 17 17 17 17 17 17 17 17 16 16 16 15 14 14 14 15 16 17 16 17 17 18 18 18 19 19 20 21 21 21 20 21 22 22 22 23 24 24 25 25 25 25 23 22 22 23 23 22 23 24 24 26 27 27 28 28 27 24 22 20 20 21 20 19 18 18 18 17
18 17 17 16 16 16 16 16 16 17 17 16 15 15 16 17 18 18 18 17 18 18 18 18 18 18 17 17 16 16 15 16 17 17 17 17 17 18 18 19 20 20 20 21 22 22 22 21 21 22 22 22 23 24 24 25 25 25 26 24 23 23 25 25 24 24 25 26 28 28 28 28 28 27 25 22 21 21 22 22 20 19 19 18 18
19 18 18 18 18 18 17 17 17 17 17 16 16 16 17 18 18 18 18 18 18 19 19 18 18 18 18 18 17 17 17 17 18 18 18 18 18 18 19 20 21 21 21 22 22 22 22 22 22 22 22 22 23 24 24 24 25 26 27 26 25 25 25 25 27 26 26 28 28 28 28 27 28 27 25 23 22 22 22 22 22 21 20 19 19
18 18 18 18 18 18 18 17 18 18 18 18 18 18 19 19 19 19 19 19 19 19 19 19 19 19 19 19 18 18 18 19 19 19 19 19 19 20 20 21 22 22 22 22 23 23 22 23 22 22 23 23 24 25 26 25 25 27 28 27 27 27 25 27 30 28 27 29 28 28 29 29 28 27 25 25 23 21 23 24 24 22 21 20 19
18 18 18 18 18 18 18 18 19 20 20 20 20 20 20 20 21 21 21 21 21 20 20 20 20 20 20 20 20 20 20 20 20 20 21 21 21 21 21 21 22 22 22 22 22 23 22 23 22 22 23 25 25 26 27 27 26 27 28 27 28 28 26 28 31 28 28 29 28 27 29 30 29 28 27 27 25 23 25 27 25 23 22 20 20
17 17 18 18 18 19 19 20 20 21 21 21 21 21 21 21 21 22 22 22 22 22 22 21 21 21 21 22 22 22 22 22 21 22 22 22 22 21 21 22 22 22 21 21 22 22 22 23 22 21 22 24 26 25 27 29 28 27 28 27 28 29 28 29 29 27 27 28 28 27 29 31 31 30 29 28 27 25 27 28 26 24 22 21 20
15 17 18 19 20 21 21 21 21 21 22 21 21 22 22 22 22 23 23 23 24 23 23 22 22 22 22 22 23 23 23 23 22 22 23 23 23 22 22 22 21 21 21 20 21 21 22 23 23 22 22 23 25 25 27 30 29 29 30 29 29 30 30 30 29 27 27 27 28 28 29 31 32 31 31 30 28 27 27 28 27 25 23 22 22
18 19 21 22 23 23 23 22 22 22 22 22 22 22 22 23 23 23 24 24 24 24 23 23 23 23 23 23 23 24 24 24 23 23 23 23 23 22 22 21 21 21 21 20 20 20 20 22 23 23 23 24 24 25 27 30 30 30 31 30 29 30 31 31 29 27 28 28 28 29 29 31 33 32 31 31 30 29 28 28 28 26 24 24 23
21 22 23 24 25 25 25 24 23 22 22 23 23 22 22 23 23 23 23 23 23 23 23 23 23 24 24 24 24 25 24 25 25 24 24 24 24 23 22 22 21 21 21 20 19 18 18 19 21 22 23 24 25 25 26 28 30 30 31 31 30 31 32 32 30 28 28 30 32 32 31 32 33 33 32 32 32 31 30 30 29 27 26 25 25
21 22 24 25 26 26 26 25 24 23 23 23 24 23 23 23 23 22 22 23 23 23 23 23 24 24 25 25 25 25 25 25 25 25 25 25 25 24 24 23 22 21 21 20 19 19 18 19 20 21 22 23 24 25 26 27 29 30 32 32 31 31 32 32 31 29 30 33 34 33 34 34 33 34 34 34 34 32 31 30 29 27 26 26 26
21 22 24 26 27 27 27 25 24 24 24 24 24 24 23 23 23 23 23 23 23 23 23 24 24 24 25 25 25 26 26 26 25 25 25 25 26 25 25 24 24 23 22 21 20 19 19 20 21 22 23 23 24 26 27 28 29 29 31 32 31 31 32 31 30 30 32 34 36 35 35 35 35 35 36 35 35 33 30 30 29 28 27 26 26
Wind_Direction
305 306 307 305 303 302 300 302 304 303 306 311 319 327 333 335 334 335 339 344 347 348 349 350 349 348 348 347 348 351 354 356 358 0 2 2 3 4 4 4 3 4 5 7 12 17 20 19 17 15 11 6 2 359 359 0 1 360 1 0 353 348 350 359 4 21 33 37 45 61 64 53 43 35 27 16 8 7 12 17 15 13 7 4 4
301 301 301 298 294 295 298 302 304 303 305 311 319 325 330 331 331 334 341 345 347 348 348 349 349 347 346 346 350 353 356 358 360 1 3 3 3 4 5 4 3 4 4 6 12 18 23 22 20 18 12 3 357 355 355 355 354 352 349 343 334 329 325 327 332 355 29 49 52 54 61 57 45 34 27 19 12 10 15 15 14 11 2 358 356
299 297 296 292 286 288 294 299 302 302 304 310 317 321 325 326 329 336 342 345 346 347 347 347 346 346 345 347 353 357 358 360 1 1 4 4 3 3 4 4 3 3 4 6 10 18 23 24 24 22 14 2 355 354 351 350 346 340 336 331 323 320 318 317 319 327 6 45 61 56 60 62 49 36 29 22 15 12 13 13 13 6 353 349 347
299 294 291 287 279 283 290 297 301 300 304 308 313 316 319 322 329 337 343 345 346 346 345 345 344 345 347 350 356 359 360 2 2 2 4 5 4 2 2 3 1 1 4 7 10 15 21 25 26 23 15 2 353 351 349 346 342 336 330 324 318 317 315 314 318 320 358 57 72 65 64 66 56 41 34 25 17 13 12 11 9 357 346 344 342
299 294 290 284 278 279 287 296 299 298 301 305 308 310 313 321 330 339 344 345 344 344 344 344 345 346 349 353 358 1 1 2 3 3 3 5 5 2 2 2 360 360 4 8 10 12 17 22 26 23 15 3 354 350 349 347 341 336 329 323 319 317 313 311 317 315 342 96 91 77 71 75 65 48 39 30 20 12 8 6 1 349 341 339 336
298 295 290 286 281 279 286 293 293 293 297 300 303 304 311 321 332 340 344 343 342 342 343 345 346 348 352 355 360 3 2 1 3 4 3 3 5 4 2 2 360 359 2 7 10 12 14 17 23 22 14 4 356 350 348 345 341 337 333 327 322 317 314 312 318 319 263 138 111 86 80 85 76 54 34 25 11 357 353 352 346 338 333 331 330
295 295 292 288 283 279 284 287 286 290 293 294 297 301 311 323 333 341 341 340 339 341 343 345 347 350 354 357 0 2 2 360 1 3 2 0 3 4 4 3 1 359 0 5 8 9 9 12 18 19 13 5 356 349 345 344 342 340 337 332 326 320 316 315 322 322 219 154 110 88 94 87 72 14 327 331 327 322 320 323 320 319 319 319 320
291 295 292 287 282 278 280 280 281 287 288 290 295 301 311 323 333 338 336 336 338 341 344 346 348 350 354 357 359 1 1 359 359 1 360 357 359 3 4 4 3 1 0 4 8 6 5 8 12 13 11 4 355 348 343 341 342 341 338 334 327 319 312 308 298 231 160 116 75 68 149 66 351 310 299 296 296 296 296 298 300 301 303 303 304
289 292 288 282 276 274 275 274 279 283 284 288 293 300 309 322 330 331 330 332 337 342 344 345 346 349 352 355 357 360 359 357 357 358 357 355 357 1 4 5 5 4 3 5 8 6 5 6 7 7 6 2 355 346 340 339 340 340 338 334 325 316 307 296 284 235 164 115 79 276 257 3 322 301 291 286 284 285 286 291 295 296 295 294 293
286 285 280 273 269 269 269 272 277 278 281 285 290 297 307 318 322 322 324 329 337 341 342 343 344 346 350 352 355 357 357 355 355 357 357 356 359 1 2 6 9 8 6 6 9 9 8 5 2 1 0 358 352 345 339 336 338 339 338 334 324 311 299 278 266 253 203 139 141 220 345 344 309 293 286 282 280 281 285 289 294 295 293 291 288
279 275 270 265 263 263 265 269 272 274 277 280 285 293 302 308 308 312 319 327 333 336 338 340 340 342 346 349 351 353 354 352 353 356 357 359 1 1 1 5 11 11 9 7 9 12 10 4 359 355 352 351 350 344 338 334 336 338 338 335 326 308 284 261 251 249 227 188 183 200 347 321 300 292 287 284 284 284 287 291 292 294 292 289 287
271 266 262 259 258 259 263 265 267 269 270 274 280 287 291 293 296 305 316 323 325 328 332 333 333 336 341 343 344 346 349 349 350 355 357 360 2 0 360 3 9 13 12 8 8 10 10 3 356 350 346 345 347 344 336 333 332 336 338 337 331 312 284 265 256 247 233 212 202 215 289 288 288 286 284 283 282 283 285 287 286 287 287 287 286
264 260 257 256 257 259 261 260 263 264 266 271 275 278 280 285 293 304 314 317 318 321 324 326 327 330 333 334 336 338 342 344 348 353 354 356 358 358 359 1 5 10 13 11 7 6 6 2 354 347 343 343 344 340 333 328 326 331 336 337 331 311 287 264 252 247 238 222 215 234 251 262 269 271 272 274 275 277 278 279 279 279 281 282 283
259 257 256 256 258 257 258 258 260 262 265 268 270 272 277 285 294 304 311 314 315 317 318 319 323 324 324 326 329 331 335 339 345 350 351 350 352 354 356 0 1 2 7 9 7 2 359 356 351 344 342 342 340 335 328 323 323 327 332 334 330 315 292 266 253 253 246 230 230 241 247 253 257 260 263 265 268 270 271 272 272 274 277 278 279
259 257 256 256 256 254 255 257 258 261 263 265 267 272 279 288 297 304 311 314 315 314 314 315 318 319 318 322 326 327 328 334 343 347 345 344 344 347 350 355 355 354 355 360 3 358 352 348 345 343 341 339 335 330 324 321 321 323 325 326 326 322 308 284 263 257 253 244 243 250 254 257 259 260 262 264 266 268 270 271 273 276 278 279 279
260 256 256 255 253 252 253 255 257 260 262 264 267 273 281 289 297 305 312 314 314 313 312 312 314 317 318 324 326 325 325 328 337 341 338 336 335 338 341 344 347 347 346 348 355 354 346 339 337 338 337 333 331 328 323 319 317 317 318 320 323 323 316 299 279 267 264 261 257 259 261 264 265 264 264 265 268 271 273 275 277 280 283 283 281
258 256 255 254 253 253 255 257 259 261 263 264 268 274 281 288 297 305 310 313 313 313 312 311 313 317 320 326 327 324 323 323 326 330 332 331 329 332 335 336 341 344 343 343 347 348 342 334 329 330 332 329 327 327 325 319 314 314 312 315 320 322 319 307 292 279 272 268 266 266 266 269 271 268 266 266 269 272 274 276 277 280 283 284 283
255 255 255 256 256 256 257 259 261 263 264 265 267 273 279 287 296 302 307 310 313 314 313 312 313 317 321 326 326 323 322 320 320 323 329 330 327 331 334 334 336 340 342 344 346 346 338 330 322 319 323 327 324 319 322 320 310 311 313 312 315 317 315 305 294 285 277 271 268 269 269 270 272 272 268 267 269 273 275 277 279 282 285 285 285
254 255 257 258 258 257 259 262 264 265 265 265 267 273 280 288 295 299 303 307 312 314 313 312 313 316 319 324 325 321 320 319 318 322 329 332 329 331 335 336 337 340 341 344 345 344 336 324 314 308 310 320 324 312 310 314 302 306 316 312 310 311 309 302 295 288 280 273 269 268 269 270 272 272 269 266 267 271 275 278 280 282 284 286 286
254 255 257 259 258 258 262 266 267 266 264 264 268 274 280 287 292 295 298 304 311 314 313 311 311 315 318 322 323 320 319 320 320 323 328 332 329 330 335 337 339 339 339 339 338 338 334 322 309 301 297 305 317 310 302 302 290 296 311 310 306 307 306 304 299 292 284 278 273 269 267 267 269 269 267 266 265 267 272 276 278 280 283 284 285
254 256 258 259 260 263 267 271 272 269 265 266 269 274 279 285 288 290 296 306 314 316 314 310 310 315 319 321 322 321 322 323 322 324 327 328 326 326 329 330 331 331 329 329 330 331 329 322 312 299 287 286 300 308 302 295 286 285 298 303 307 309 308 305 301 296 291 285 280 274 269 267 267 266 264 263 262 264 269 273 276 279 282 284 285
255 258 260 262 265 270 273 277 277 273 269 270 274 277 280 282 284 289 301 313 318 318 315 309 308 314 318 319 320 323 327 327 324 325 326 324 322 322 321 318 318 319 319 320 322 323 321 320 314 302 287 278 284 298 301 294 287 282 285 293 304 309 307 304 301 300 297 291 287 281 273 267 265 263 261 260 260 263 268 272 275 279 282 284 285
257 260 262 264 269 276 277 280 281 276 272 272 274 275 275 279 286 299 313 321 322 320 314 306 305 312 316 317 317 321 328 329 322 320 319 318 317 316 315 313 313 314 315 315 317 317 315 312 308 303 294 282 279 284 290 290 287 283 279 286 296 302 302 301 300 300 298 294 289 285 277 269 266 264 262 260 260 264 269 272 275 277 281 284 285
262 263 264 267 274 282 281 280 280 274 267 265 265 267 275 285 297 312 321 325 325 322 313 304 305 310 312 311 312 318 321 315 308 309 312 312 310 311 311 310 311 312 312 312 312 311 307 303 298 297 296 289 281 278 277 279 282 283 279 282 289 293 295 297 298 297 297 296 292 289 283 273 268 267 265 263 262 265 270 273 275 276 280 284 287
269 270 270 271 275 279 280 277 271 260 253 254 259 268 279 291 304 317 324 326 325 322 313 306 304 304 303 305 310 312 306 299 297 300 304 303 302 305 307 308 309 309 308 307 307 305 301 298 292 288 289 286 282 280 275 271 274 279 280 280 283 285 286 290 295 295 295 296 294 291 287 279 271 267 266 265 266 268 271 274 276 278 281 285 288
270 272 272 271 273 275 275 269 257 247 247 251 258 268 278 291 306 316 321 325 324 320 312 304 300 296 297 304 305 300 295 293 293 292 291 292 295 299 302 303 304 305 304 304 303 302 300 296 291 285 283 279 275 279 279 272 267 271 276 276 277 278 277 282 289 291 291 292 292 291 289 283 274 269 267 269 272 273 273 275 277 280 284 287 288
260 263 266 268 272 275 272 264 255 250 250 253 261 270 280 293 304 312 320 324 322 317 310 304 300 297 299 305 303 298 294 294 296 296 291 288 291 295 295 295 297 299 299 300 299 300 299 296 290 287 285 278 271 271 277 275 268 265 270 274 276 276 275 277 280 283 285 287 287 288 287 284 278 272 270 272 275 276 275 276 279 281 284 286 288
257 261 264 269 273 274 271 265 259 254 251 253 259 266 278 292 302 313 321 323 321 318 313 309 307 304 305 309 306 301 299 299 305 308 302 295 294 293 291 291 292 294 293 293 292 293 295 293 289 288 288 283 274 270 272 275 273 267 266 270 274 276 275 274 273 275 278 280 280 281 281 280 277 273 271 272 274 276 275 274 278 281 282 285 286
263 264 266 268 269 267 265 261 256 250 248 249 251 259 275 293 304 314 321 323 323 320 316 314 312 310 308 309 308 303 299 300 306 307 301 293 293 293 288 286 288 291 291 289 289 291 292 291 290 290 289 286 279 274 274 276 277 273 267 267 271 275 277 275 272 270 271 272 273 274 276 275 274 273 271 270 270 273 272 271 274 278 281 285 287
266 264 263 263 264 263 262 260 256 251 249 247 246 256 272 289 301 311 319 323 323 320 316 314 314 314 312 310 310 304 299 303 303 297 287 274 280 289 284 282 289 293 291 289 290 292 293 291 291 291 290 288 283 278 275 275 275 274 270 266 269 273 275 277 276 274 271 271 270 271 273 273 272 271 269 268 268 269 270 270 272 275 280 285 289
266 267 266 267 271 272 268 263 261 257 251 244 245 254 268 285 297 309 317 322 322 318 315 315 316 316 313 310 312 306 300 308 307 293 271 253 262 277 276 280 291 293 288 288 290 292 291 290 288 288 287 286 285 282 279 277 274 272 270 267 267 270 272 275 277 277 275 273 272 271 272 272 272 271 269 267 268 269 270 272 272 273 278 283 287
274 277 273 271 276 278 272 266 263 259 251 243 246 255 270 284 295 306 315 320 320 316 313 313 317 316 312 310 312 310 302 302 304 292 268 256 264 273 271 275 284 285 281 284 287 289 289 286 285 283 281 280 282 283 284 284 279 274 272 268 263 262 264 267 272 275 275 275 273 270 268 266 267 269 269 268 268 269 269 270 271 272 274 278 281
274 281 282 276 277 280 273 265 256 251 246 242 245 254 268 279 290 302 312 317 315 312 309 309 314 317 317 315 311 307 297 289 294 293 280 272 277 283 281 277 277 277 277 281 284 286 287 285 283 281 278 276 277 280 282 284 282 279 277 273 268 261 258 258 263 270 275 277 277 275 271 264 261 262 265 265 265 266 267 268 269 269 270 272 275
272 278 284 284 282 278 269 261 252 245 239 236 241 251 263 273 287 300 309 314 310 305 303 304 310 315 317 317 312 302 292 287 290 294 290 285 286 289 287 281 275 271 272 278 282 286 288 287 284 282 280 276 275 277 278 277 277 278 277 276 272 267 264 260 259 264 270 274 276 277 277 271 263 259 259 261 261 262 262 264 267 268 267 268 271
273 276 279 282 279 272 268 264 256 247 240 238 244 253 261 271 285 295 303 309 306 300 297 299 304 309 312 314 310 302 295 290 290 294 294 292 294 294 287 280 274 272 274 277 281 288 291 291 289 287 285 282 279 277 276 274 274 276 276 275 274 270 266 263 260 260 264 269 272 274 276 275 269 263 261 259 259 259 259 261 263 265 266 266 268
272 273 276 278 277 276 278 276 266 252 241 240 245 252 258 268 280 288 296 305 306 297 292 293 298 303 306 308 307 301 296 290 289 293 296 297 301 303 297 285 277 278 282 283 286 291 293 294 294 293 292 290 288 284 279 276 275 277 278 281 282 274 263 258 257 257 260 267 271 272 272 271 268 265 263 260 258 257 257 259 261 264 265 264 265
268 269 272 276 279 283 283 281 271 247 232 235 246 255 259 263 274 284 294 305 307 298 291 290 294 298 302 306 306 301 294 289 287 290 296 300 303 306 306 300 288 284 286 286 289 291 293 295 297 298 296 292 290 288 285 283 280 279 281 285 286 279 266 259 256 255 258 261 266 267 267 266 267 264 261 259 257 255 255 258 260 263 263 261 261
262 263 267 273 279 283 273 267 264 237 227 237 253 262 261 262 271 281 291 302 306 301 293 290 293 298 302 305 306 301 293 287 286 288 294 300 304 306 307 304 298 293 290 290 291 292 294 296 299 302 300 295 292 290 288 288 285 283 282 285 284 281 273 262 255 254 255 254 256 259 260 261 264 262 259 258 256 253 254 256 258 260 260 258 257
257 258 263 272 281 280 265 259 264 238 230 243 258 262 260 263 272 279 288 297 302 301 296 293 294 298 302 304 303 299 289 284 285 288 293 299 303 303 302 301 300 298 297 296 295 294 295 298 300 301 300 298 295 293 291 288 287 285 282 282 281 282 280 270 259 255 254 252 249 251 255 257 260 260 258 257 255 252 251 252 255 257 257 255 253
253 255 261 272 277 272 262 262 263 244 240 255 265 264 261 265 274 280 287 295 299 299 297 295 294 297 301 302 301 297 290 286 286 289 294 298 300 300 300 302 304 304 301 298 297 297 297 299 300 298 297 296 295 294 293 289 285 284 281 279 281 284 285 282 271 260 257 255 250 248 251 255 256 256 257 255 253 250 249 249 251 253 254 252 251
253 255 260 267 268 264 261 264 261 252 253 263 269 270 269 270 273 279 286 293 297 299 301 301 299 299 301 301 301 298 294 292 292 293 296 298 299 301 302 304 305 304 300 298 298 298 298 298 298 297 296 295 295 294 292 289 286 285 283 278 277 281 281 282 279 268 260 258 254 249 249 251 251 252 253 253 251 249 247 246 247 249 250 250 248
254 256 258 259 258 257 256 255 255 255 260 267 271 273 272 271 273 278 285 291 296 300 304 306 304 301 300 300 301 300 296 293 293 295 296 298 299 300 300 301 301 301 300 299 299 298 297 297 295 296 297 295 294 293 291 290 287 287 285 278 271 272 274 278 279 273 263 258 256 252 250 250 248 248 250 251 248 246 245 245 245 246 247 247 246
254 254 255 255 255 254 251 251 255 261 267 272 272 270 268 268 271 276 282 288 294 299 303 305 303 300 299 299 300 300 297 295 293 294 296 297 298 297 298 299 299 300 300 299 297 296 296 296 295 296 297 295 293 292 292 292 289 285 284 283 277 272 272 276 276 273 266 259 257 254 252 250 246 246 249 249 247 245 244 245 243 244 245 244 245
251 252 253 255 256 253 252 257 265 270 272 272 269 267 267 269 272 276 280 286 291 297 301 303 301 299 298 298 300 300 298 297 296 296 297 297 296 296 297 297 298 299 298 296 296 296 296 296 296 298 298 295 293 293 293 292 289 286 285 285 284 280 275 270 270 274 272 265 260 254 250 249 247 245 246 248 246 244 244 243 240 240 242 242 244
254 254 254 255 256 255 259 265 270 271 270 268 267 267 268 270 273 276 280 284 288 294 299 302 301 299 298 298 300 300 299 299 298 298 298 297 297 297 296 297 298 298 297 295 295 297 297 297 297 298 297 295 295 294 293 290 288 288 287 284 282 283 280 271 269 275 276 268 261 254 247 247 248 245 246 248 246 242 242 241 239 238 239 241 243
262 262 261 259 259 260 264 268 269 268 267 267 268 270 272 274 276 278 281 283 287 291 295 299 299 298 297 297 299 300 299 299 299 298 298 298 298 297 296 297 298 299 299 297 297 298 299 300 300 299 295 295 296 296 293 292 290 288 286 283 282 282 281 278 275 276 280 273 262 255 246 243 244 243 242 245 244 240 240 240 240 238 237 239 241
272 271 269 266 265 265 268 269 268 267 267 268 270 272 274 275 277 279 281 283 285 288 292 296 298 297 295 295 296 298 298 299 299 298 297 297 297 296 295 296 298 299 300 299 299 301 304 305 307 306 303 300 299 299 296 296 296 293 288 286 284 282 281 282 279 278 284 280 266 257 248 242 241 241 241 243 243 241 240 240 240 237 236 237 238
275 275 272 270 269 268 269 268 267 267 267 268 269 271 272 273 274 275 277 279 282 285 289 293 295 294 292 291 291 293 295 296 297 297 297 297 296 295 295 296 298 301 301 300 300 303 306 308 310 311 310 306 303 301 298 297 298 296 293 291 286 284 282 281 279 279 285 286 274 260 250 242 239 241 242 242 243 242 241 240 239 237 236 236 237
271 271 270 269 269 268 268 266 267 267 267 268 268 268 269 270 272 273 274 276 279 282 285 288 289 290 290 289 289 290 292 294 295 296 297 296 295 293 293 294 297 299 300 300 301 304 306 308 309 310 310 308 304 302 299 297 297 297 296 294 289 285 283 281 280 279 282 284 280 265 251 242 238 239 242 241 240 241 241 240 238 237 236 235 236
264 265 266 267 267 267 267 267 268 268 268 268 267 267 267 269 271 273 275 277 279 281 283 285 286 288 289 289 290 291 292 294 296 297 298 297 295 294 294 296 298 300 301 301 303 305 307 308 308 310 309 307 305 304 301 297 296 295 295 296 293 286 282 281 279 278 276 273 272 265 253 244 239 238 240 240 239 240 241 241 240 237 237 237 237
261 263 265 266 266 267 268 268 269 269 269 267 266 267 268 271 273 275 278 280 281 282 282 284 285 287 288 289 290 291 292 293 295 297 298 297 296 294 295 297 299 301 303 303 303 304 304 305 305 306 307 307 308 307 305 302 299 296 294 295 296 291 284 282 277 275 277 272 266 261 253 247 241 238 239 239 239 239 240 241 241 239 238 239 239
Height
5876 5874 5874 5873 5873 5872 5872 5871 5871 5871 5871 5872 5872 5871 5869 5868 5867 5867 5866 5865 5864 5863 5863 5862 5862 5861 5860 5859 5858 5857 5855 5854 5852 5851 5850 5848 5847 5846 5845 5844 5843 5842 5841 5840 5840 5839 5839 5838 5838 5837 5836 5836 5835 5835 5834 5834 5833 5833 5833 5832 5832 5831 5831 5831 5831 5830 5830 5830 5829 5829 5828 5828 5828 5828 5828 5828 5827 5827 5827 5826 5826 5826 5825 5825 5824
5874 5873 5872 5872 5872 5872 5871 5871 5872 5872 5872 5872 5872 5871 5869 5868 5867 5866 5865 5865 5864 5864 5863 5863 5862 5861 5860 5859 5858 5856 5855 5854 5852 5851 5850 5849 5848 5846 5845 5844 5843 5842 5841 5841 5840 5839 5839 5838 5838 5838 5837 5836 5835 5835 5835 5834 5834 5833 5833 5833 5832 5832 5831 5831 5831 5831 5830 5830 5829 5829 5828 5828 5828 5828 5828 5828 5827 5827 5827 5826 5826 5826 5826 5825 5824
5873 5872 5871 5871 5871 5871 5871 5871 5872 5872 5872 5872 5871 5870 5869 5868 5867 5866 5865 5865 5865 5864 5863 5863 5862 5861 5860 5859 5857 5856 5855 5854 5852 5851 5850 5849 5848 5847 5846 5845 5844 5843 5842 5841 5840 5840 5839 5839 5838 5838 5837 5836 5836 5835 5835 5835 5834 5834 5833 5833 5833 5832 5832 5831 5831 5831 5830 5830 5829 5829 5828 5828 5828 5828 5828 5827 5827 5827 5827 5826 5826 5826 5826 5825 5824
5871 5870 5870 5870 5870 5870 5870 5871 5872 5872 5872 5872 5871 5870 5869 5868 5867 5866 5866 5865 5865 5864 5863 5863 5862 5861 5860 5859 5857 5856 5855 5853 5852 5851 5850 5849 5848 5847 5846 5845 5845 5844 5843 5842 5841 5840 5840 5839 5839 5839 5838 5837 5836 5836 5835 5835 5835 5834 5834 5833 5833 5832 5832 5831 5831 5830 5830 5830 5829 5829 5828 5828 5828 5827 5827 5827 5827 5827 5826 5826 5826 5826 5826 5825 5824
5870 5869 5869 5869 5869 5870 5870 5871 5872 5872 5872 5872 5871 5870 5869 5868 5867 5867 5866 5865 5865 5864 5863 5862 5862 5861 5860 5858 5857 5856 5854 5853 5852 5851 5850 5849 5849 5848 5847 5846 5845 5844 5843 5842 5841 5841 5840 5840 5839 5839 5839 5838 5837 5836 5836 5836 5835 5835 5834 5833 5833 5832 5832 5831 5831 5830 5830 5829 5829 5828 5828 5828 5827 5827 5827 5827 5827 5826 5826 5826 5826 5826 5825 5825 5824
5869 5869 5868 5868 5869 5869 5870 5871 5872 5872 5872 5871 5870 5869 5868 5868 5867 5866 5866 5865 5865 5864 5863 5862 5861 5860 5859 5858 5857 5856 5855 5853 5852 5851 5850 5849 5849 5848 5848 5847 5845 5844 5843 5842 5842 5841 5841 5840 5840 5840 5839 5838 5837 5837 5836 5836 5836 5835 5834 5833 5832 5832 5831 5831 5830 5830 5830 5829 5829 5828 5828 5828 5827 5827 5827 5827 5826 5826 5826 5825 5825 5825 5825 5825 5824
5868 5868 5868 5868 5868 5869 5869 5871 5871 5871 5871 5871 5870 5869 5868 5867 5867 5866 5866 5865 5864 5864 5863 5862 5860 5860 5859 5858 5857 5856 5855 5853 5852 5851 5850 5849 5849 5848 5847 5847 5846 5844 5844 5843 5842 5842 5841 5841 5840 5840 5839 5839 5838 5837 5837 5836 5836 5835 5834 5833 5832 5832 5831 5831 5830 5830 5829 5829 5829 5828 5828 5828 5827 5827 5827 5826 5826 5826 5825 5825 5825 5825 5825 5825 5824
5868 5868 5867 5867 5868 5868 5869 5870 5870 5871 5871 5870 5869 5869 5868 5867 5866 5866 5865 5865 5864 5863 5862 5861 5860 5859 5858 5857 5856 5855 5854 5853 5852 5851 5850 5849 5848 5848 5847 5847 5846 5845 5844 5843 5842 5842 5841 5841 5840 5840 5840 5839 5838 5837 5837 5836 5835 5835 5834 5833 5832 5832 5831 5831 5830 5830 5829 5829 5829 5828 5828 5828 5827 5827 5827 5826 5826 5826 5825 5825 5824 5824 5824 5824 5824
5867 5867 5867 5867 5867 5867 5868 5869 5870 5870 5870 5870 5869 5868 5867 5867 5866 5865 5865 5864 5864 5863 5861 5860 5859 5858 5857 5856 5855 5855 5854 5853 5852 5851 5850 5849 5848 5847 5847 5846 5846 5845 5844 5843 5843 5842 5841 5841 5840 5840 5839 5839 5838 5837 5836 5836 5835 5834 5834 5833 5832 5832 5831 5831 5830 5830 5829 5829 5829 5828 5828 5828 5827 5827 5827 5826 5826 5826 5825 5825 5824 5824 5824 5824 5824
5866 5866 5866 5866 5866 5867 5867 5868 5869 5869 5869 5869 5868 5867 5867 5866 5865 5864 5864 5864 5863 5862 5860 5859 5858 5857 5856 5855 5854 5854 5853 5853 5852 5851 5850 5849 5848 5847 5847 5846 5846 5845 5844 5843 5843 5842 5841 5841 5840 5840 5839 5839 5838 5837 5836 5836 5835 5834 5834 5833 5832 5832 5831 5831 5830 5830 5830 5829 5829 5829 5828 5828 5827 5827 5827 5826 5826 5826 5825 5825 5824 5824 5824 5824 5823
5865 5865 5865 5865 5865 5866 5866 5867 5868 5868 5868 5867 5867 5866 5866 5865 5864 5863 5863 5863 5862 5860 5859 5858 5857 5856 5855 5854 5853 5853 5852 5852 5851 5851 5850 5849 5848 5847 5847 5846 5846 5845 5844 5843 5843 5842 5841 5841 5840 5839 5839 5839 5838 5837 5837 5836 5835 5835 5834 5833 5832 5832 5831 5831 5830 5830 5830 5829 5829 5829 5828 5828 5828 5827 5827 5827 5826 5825 5825 5825 5824 5824 5823 5823 5823
5864 5864 5864 5864 5864 5865 5866 5866 5867 5867 5866 5866 5866 5865 5864 5863 5862 5862 5862 5862 5860 5859 5858 5857 5856 5855 5854 5853 5852 5852 5852 5851 5851 5850 5849 5848 5847 5847 5846 5846 5845 5845 5844 5844 5843 5842 5841 5841 5840 5839 5839 5838 5838 5837 5837 5836 5835 5835 5834 5833 5832 5832 5831 5831 5831 5830 5830 5829 5829 5828 5828 5828 5828 5827 5827 5827 5826 5825 5825 5824 5824 5823 5823 5823 5822
5862 5863 5863 5863 5864 5864 5865 5865 5865 5865 5865 5865 5865 5864 5863 5862 5862 5861 5861 5860 5859 5858 5857 5856 5855 5854 5853 5852 5852 5851 5851 5850 5850 5850 5849 5848 5847 5846 5846 5846 5845 5845 5844 5844 5843 5842 5841 5841 5840 5839 5839 5838 5838 5837 5837 5836 5835 5835 5834 5833 5832 5832 5831 5831 5831 5830 5830 5829 5828 5828 5828 5828 5827 5827 5827 5826 5826 5825 5824 5824 5823 5823 5822 5822 5822
5861 5862 5862 5862 5863 5864 5864 5864 5864 5864 5864 5864 5864 5863 5862 5862 5861 5861 5860 5859 5858 5857 5856 5855 5854 5853 5852 5852 5851 5850 5850 5850 5849 5849 5849 5848 5847 5846 5846 5845 5845 5845 5844 5843 5843 5842 5841 5841 5840 5839 5839 5838 5837 5837 5836 5836 5835 5835 5834 5833 5832 5832 5831 5831 5830 5830 5829 5829 5828 5828 5828 5827 5827 5827 5826 5826 5825 5825 5824 5823 5823 5822 5821 5821 5821
5860 5861 5861 5862 5862 5863 5863 5863 5863 5863 5863 5862 5862 5862 5862 5862 5861 5860 5859 5858 5857 5856 5855 5854 5853 5853 5852 5852 5851 5850 5849 5849 5849 5848 5848 5848 5847 5846 5846 5845 5845 5845 5844 5844 5843 5842 5841 5841 5840 5839 5838 5838 5837 5836 5836 5835 5835 5834 5833 5833 5832 5831 5831 5830 5830 5829 5829 5829 5828 5828 5827 5827 5827 5826 5826 5825 5825 5824 5824 5823 5822 5821 5821 5820 5820
5859 5860 5860 5861 5861 5861 5861 5862 5862 5862 5861 5861 5861 5862 5861 5861 5860 5860 5859 5857 5856 5855 5854 5853 5853 5852 5852 5851 5851 5850 5849 5848 5848 5848 5847 5847 5847 5846 5846 5845 5845 5844 5844 5843 5843 5842 5841 5841 5840 5839 5838 5837 5837 5836 5836 5835 5835 5834 5833 5832 5831 5831 5830 5830 5829 5829 5829 5828 5828 5827 5827 5827 5826 5825 5825 5824 5824 5824 5823 5822 5822 5821 5820 5820 5819
5858 5859 5859 5859 5860 5860 5860 5860 5860 5860 5860 5861 5861 5861 5860 5860 5859 5859 5858 5857 5856 5854 5853 5853 5852 5852 5851 5851 5851 5850 5849 5848 5847 5847 5846 5846 5846 5846 5845 5845 5844 5844 5844 5843 5842 5842 5841 5841 5840 5839 5838 5837 5836 5836 5835 5835 5834 5834 5833 5832 5831 5830 5830 5829 5828 5828 5828 5828 5827 5827 5827 5826 5825 5825 5824 5824 5823 5823 5822 5822 5821 5820 5820 5819 5819
5857 5857 5858 5858 5858 5859 5859 5859 5859 5859 5859 5860 5859 5859 5859 5859 5858 5858 5857 5856 5855 5854 5853 5852 5852 5851 5851 5851 5851 5850 5849 5847 5846 5846 5846 5846 5846 5846 5845 5845 5844 5843 5843 5842 5842 5841 5841 5840 5840 5839 5838 5837 5836 5835 5835 5834 5834 5833 5832 5832 5831 5830 5829 5828 5828 5828 5827 5827 5827 5826 5826 5825 5825 5824 5823 5823 5823 5822 5822 5821 5820 5820 5819 5819 5818
5856 5856 5856 5857 5857 5857 5858 5858 5858 5858 5858 5858 5858 5858 5858 5858 5857 5857 5856 5855 5854 5853 5852 5852 5851 5851 5851 5851 5850 5849 5848 5847 5846 5845 5846 5846 5845 5845 5845 5844 5844 5843 5842 5842 5842 5841 5840 5840 5839 5838 5838 5837 5836 5835 5834 5833 5833 5832 5832 5831 5830 5829 5828 5828 5828 5827 5827 5826 5826 5825 5825 5824 5824 5823 5823 5822 5822 5821 5821 5820 5820 5819 5818 5818 5817
5854 5854 5855 5855 5856 5856 5856 5857 5857 5857 5857 5857 5857 5857 5857 5856 5856 5856 5855 5854 5853 5852 5852 5851 5850 5850 5850 5850 5849 5848 5848 5847 5846 5845 5845 5845 5845 5844 5844 5844 5843 5842 5841 5841 5841 5840 5840 5839 5838 5838 5837 5837 5836 5834 5833 5832 5832 5832 5831 5830 5829 5829 5828 5827 5827 5826 5826 5825 5825 5824 5824 5823 5823 5822 5822 5821 5821 5820 5820 5820 5819 5818 5817 5817 5816
5852 5853 5854 5854 5854 5855 5856 5856 5857 5857 5856 5856 5856 5856 5856 5856 5855 5855 5855 5854 5853 5852 5851 5850 5849 5849 5849 5848 5848 5847 5847 5847 5846 5845 5845 5844 5844 5843 5843 5842 5842 5841 5840 5839 5839 5839 5838 5838 5837 5837 5836 5836 5835 5834 5833 5832 5831 5831 5830 5830 5829 5828 5827 5826 5826 5825 5825 5824 5824 5823 5823 5822 5822 5821 5821 5820 5820 5819 5819 5819 5818 5817 5816 5816 5815
5851 5852 5853 5853 5854 5854 5855 5856 5856 5856 5856 5856 5856 5856 5855 5855 5855 5855 5854 5854 5853 5851 5850 5849 5848 5848 5847 5847 5846 5847 5847 5846 5845 5845 5844 5843 5843 5842 5842 5841 5840 5840 5839 5838 5837 5837 5836 5836 5836 5836 5835 5835 5835 5833 5832 5831 5831 5831 5830 5829 5828 5827 5826 5826 5825 5825 5824 5823 5823 5822 5822 5821 5821 5820 5819 5819 5819 5818 5818 5817 5817 5816 5815 5814 5814
5851 5852 5852 5853 5854 5854 5855 5855 5855 5855 5855 5855 5855 5855 5855 5855 5855 5855 5854 5853 5852 5850 5849 5848 5847 5847 5846 5845 5845 5846 5846 5846 5845 5844 5842 5842 5841 5841 5841 5840 5839 5839 5838 5837 5836 5835 5835 5834 5834 5834 5834 5834 5834 5833 5832 5831 5830 5830 5829 5828 5827 5827 5825 5825 5824 5824 5823 5822 5822 5821 5820 5820 5820 5819 5819 5818 5818 5817 5817 5816 5816 5815 5814 5813 5813
5851 5851 5852 5853 5854 5854 5854 5855 5855 5855 5854 5854 5854 5854 5855 5855 5855 5854 5854 5852 5851 5849 5848 5847 5846 5845 5845 5844 5845 5845 5844 5844 5843 5842 5841 5840 5840 5840 5839 5839 5838 5837 5836 5836 5835 5834 5833 5833 5832 5832 5832 5832 5832 5831 5831 5830 5829 5828 5828 5827 5826 5826 5825 5824 5823 5823 5822 5822 5821 5820 5820 5819 5819 5818 5818 5817 5817 5816 5816 5815 5815 5814 5813 5812 5812
5851 5851 5852 5853 5853 5853 5853 5853 5854 5854 5853 5853 5853 5854 5854 5854 5854 5853 5852 5851 5850 5849 5848 5846 5845 5844 5843 5843 5844 5843 5842 5841 5840 5840 5839 5839 5838 5838 5838 5838 5837 5836 5835 5834 5834 5833 5832 5831 5831 5830 5830 5830 5830 5830 5829 5829 5828 5827 5827 5826 5825 5825 5824 5823 5822 5821 5821 5821 5820 5819 5819 5818 5818 5817 5817 5816 5816 5815 5815 5814 5813 5813 5812 5811 5811
5849 5850 5851 5851 5852 5852 5852 5852 5852 5852 5852 5852 5853 5854 5854 5854 5853 5852 5851 5850 5849 5848 5847 5845 5844 5843 5843 5843 5842 5841 5840 5839 5839 5838 5837 5837 5836 5836 5836 5836 5835 5835 5833 5833 5832 5831 5831 5830 5829 5829 5829 5828 5828 5828 5828 5827 5827 5826 5825 5825 5824 5823 5822 5822 5821 5820 5820 5819 5819 5818 5818 5817 5817 5816 5816 5815 5815 5814 5814 5813 5812 5812 5811 5810 5810
5847 5848 5849 5850 5850 5851 5851 5851 5851 5852 5852 5852 5853 5853 5853 5853 5852 5851 5850 5850 5848 5847 5845 5844 5843 5842 5842 5842 5841 5839 5839 5838 5838 5837 5836 5835 5835 5835 5835 5834 5834 5833 5832 5831 5830 5829 5829 5828 5828 5827 5827 5827 5826 5826 5826 5825 5825 5824 5823 5823 5823 5822 5821 5820 5820 5819 5818 5818 5817 5817 5816 5816 5816 5815 5815 5814 5814 5813 5813 5812 5811 5811 5810 5809 5809
5846 5847 5848 5849 5850 5850 5850 5850 5851 5851 5851 5852 5852 5853 5852 5852 5851 5850 5850 5849 5848 5846 5844 5843 5842 5842 5842 5841 5840 5838 5838 5838 5838 5837 5836 5835 5834 5834 5833 5832 5832 5831 5830 5829 5828 5828 5827 5827 5826 5826 5825 5825 5825 5824 5824 5823 5823 5823 5822 5821 5821 5820 5819 5819 5818 5817 5817 5816 5816 5815 5815 5814 5814 5814 5814 5814 5813 5812 5812 5811 5811 5810 5809 5809 5808
5845 5847 5848 5848 5848 5848 5848 5849 5849 5850 5850 5850 5851 5851 5851 5851 5850 5850 5849 5848 5846 5845 5843 5842 5841 5841 5841 5840 5838 5837 5837 5837 5837 5836 5835 5834 5833 5833 5832 5831 5830 5829 5828 5828 5827 5826 5826 5825 5825 5824 5824 5823 5823 5823 5822 5822 5821 5821 5821 5820 5820 5819 5818 5817 5816 5816 5815 5814 5814 5814 5813 5813 5813 5812 5812 5812 5812 5811 5811 5811 5810 5809 5808 5808 5807
5844 5845 5846 5846 5847 5847 5847 5847 5848 5848 5849 5850 5850 5850 5850 5850 5849 5849 5848 5847 5845 5844 5842 5841 5840 5840 5840 5839 5837 5836 5836 5836 5835 5835 5834 5833 5832 5831 5831 5830 5829 5828 5827 5827 5826 5826 5825 5824 5824 5823 5822 5822 5821 5821 5821 5820 5820 5819 5819 5818 5818 5817 5816 5815 5815 5815 5814 5813 5812 5812 5812 5811 5811 5811 5811 5810 5810 5810 5810 5809 5809 5808 5808 5807 5806
5843 5843 5844 5845 5846 5846 5846 5846 5847 5848 5848 5848 5848 5849 5849 5849 5849 5848 5847 5846 5844 5843 5841 5840 5840 5839 5839 5838 5836 5835 5835 5835 5834 5833 5832 5831 5830 5830 5829 5829 5829 5828 5827 5826 5825 5825 5824 5824 5823 5822 5821 5820 5820 5819 5819 5819 5818 5818 5817 5816 5816 5816 5815 5814 5814 5813 5813 5812 5811 5811 5810 5810 5810 5810 5810 5809 5809 5809 5808 5808 5808 5807 5807 5806 5805
5841 5842 5843 5844 5844 5845 5845 5845 5846 5847 5847 5847 5847 5848 5848 5848 5848 5847 5846 5845 5844 5842 5841 5840 5839 5838 5838 5837 5836 5835 5834 5834 5833 5831 5830 5829 5828 5828 5828 5828 5828 5827 5826 5825 5824 5824 5823 5822 5822 5821 5820 5819 5818 5818 5817 5817 5817 5816 5816 5815 5814 5813 5813 5813 5812 5812 5811 5811 5810 5810 5809 5808 5808 5808 5808 5808 5807 5807 5807 5807 5806 5806 5806 5805 5804
5840 5841 5841 5842 5842 5843 5844 5844 5844 5845 5845 5846 5846 5847 5847 5847 5847 5847 5846 5844 5843 5841 5840 5839 5838 5837 5836 5836 5835 5834 5833 5833 5832 5830 5829 5828 5827 5827 5826 5826 5826 5826 5825 5824 5823 5822 5821 5821 5820 5819 5818 5818 5817 5816 5815 5815 5815 5814 5814 5812 5811 5811 5811 5811 5810 5810 5809 5809 5809 5808 5808 5807 5806 5806 5807 5807 5806 5806 5805 5805 5805 5805 5805 5804 5803
5838 5839 5840 5840 5841 5841 5842 5842 5842 5843 5843 5844 5845 5845 5845 5845 5845 5845 5845 5844 5842 5841 5839 5838 5837 5836 5835 5835 5834 5833 5833 5832 5831 5829 5828 5827 5826 5826 5825 5824 5824 5824 5823 5822 5821 5821 5820 5819 5818 5818 5817 5816 5815 5814 5813 5813 5812 5811 5811 5809 5809 5809 5809 5809 5808 5808 5807 5807 5807 5807 5806 5806 5805 5805 5805 5805 5805 5804 5804 5804 5804 5803 5803 5803 5802
5836 5837 5838 5839 5839 5840 5840 5840 5841 5841 5841 5842 5843 5843 5843 5843 5844 5844 5843 5842 5841 5839 5838 5837 5836 5835 5835 5834 5833 5832 5831 5830 5829 5828 5827 5826 5825 5825 5824 5823 5822 5822 5822 5821 5820 5820 5819 5818 5817 5817 5815 5815 5814 5813 5812 5811 5810 5809 5807 5806 5807 5807 5807 5808 5807 5807 5806 5805 5805 5805 5805 5805 5804 5804 5803 5803 5803 5803 5803 5802 5802 5802 5802 5802 5801
5835 5835 5836 5837 5838 5838 5839 5839 5839 5839 5840 5840 5840 5840 5841 5841 5842 5842 5842 5841 5839 5838 5837 5836 5835 5834 5834 5833 5832 5831 5830 5829 5828 5827 5826 5825 5824 5823 5822 5821 5821 5820 5820 5819 5818 5818 5817 5817 5816 5816 5815 5814 5813 5812 5811 5810 5809 5807 5805 5805 5806 5805 5804 5805 5805 5805 5804 5804 5804 5803 5803 5803 5802 5802 5802 5801 5801 5801 5801 5801 5801 5800 5800 5800 5800
5833 5834 5835 5835 5836 5837 5837 5837 5837 5838 5838 5838 5838 5838 5839 5839 5840 5840 5840 5839 5838 5836 5835 5835 5834 5833 5832 5832 5831 5829 5828 5827 5827 5826 5824 5823 5822 5822 5821 5820 5819 5818 5818 5817 5816 5816 5815 5815 5814 5814 5813 5812 5811 5810 5809 5809 5808 5806 5804 5804 5804 5803 5801 5801 5802 5802 5802 5802 5803 5802 5801 5801 5801 5800 5800 5800 5800 5799 5799 5799 5799 5799 5799 5799 5799
5831 5832 5833 5834 5834 5835 5835 5836 5836 5836 5836 5836 5836 5837 5837 5837 5837 5838 5838 5837 5836 5835 5834 5833 5832 5832 5831 5830 5829 5828 5827 5826 5825 5824 5823 5822 5821 5820 5820 5819 5818 5817 5816 5816 5815 5814 5813 5812 5812 5811 5810 5809 5808 5807 5807 5806 5805 5804 5803 5803 5802 5801 5799 5798 5798 5799 5799 5800 5800 5800 5799 5798 5798 5798 5798 5798 5798 5798 5797 5797 5798 5798 5798 5797 5797
5829 5830 5831 5832 5832 5833 5833 5834 5835 5835 5835 5835 5835 5835 5835 5835 5835 5835 5835 5835 5835 5834 5832 5831 5831 5830 5830 5829 5828 5827 5826 5825 5824 5823 5822 5821 5820 5819 5818 5817 5817 5816 5815 5814 5813 5812 5811 5810 5809 5808 5808 5807 5806 5805 5804 5803 5802 5802 5801 5800 5799 5798 5797 5796 5796 5796 5796 5796 5797 5797 5796 5796 5796 5796 5796 5796 5796 5796 5795 5796 5796 5796 5796 5796 5796
5827 5828 5829 5830 5830 5831 5831 5832 5833 5834 5834 5833 5833 5833 5833 5833 5833 5833 5833 5833 5832 5832 5831 5830 5829 5828 5828 5827 5826 5825 5825 5824 5823 5822 5821 5820 5819 5818 5817 5816 5815 5814 5813 5812 5811 5810 5809 5807 5806 5805 5805 5804 5803 5803 5802 5801 5799 5799 5799 5798 5797 5796 5795 5794 5794 5793 5793 5793 5793 5793 5793 5793 5793 5793 5794 5794 5794 5794 5793 5794 5794 5794 5794 5794 5794
5825 5826 5827 5828 5828 5829 5829 5830 5831 5832 5832 5832 5831 5831 5831 5831 5831 5831 5831 5830 5830 5829 5828 5828 5827 5826 5826 5825 5825 5824 5823 5822 5821 5820 5819 5819 5818 5816 5815 5814 5813 5813 5811 5810 5809 5807 5806 5805 5803 5802 5802 5801 5801 5800 5800 5798 5797 5796 5796 5796 5795 5794 5792 5792 5792 5791 5790 5790 5790 5790 5790 5790 5790 5790 5790 5791 5792 5792 5791 5792 5792 5792 5792 5792 5792
5823 5824 5825 5826 5826 5827 5827 5828 5829 5830 5830 5830 5829 5829 5829 5830 5830 5829 5829 5828 5827 5826 5826 5825 5825 5824 5824 5823 5823 5822 5821 5821 5819 5818 5818 5817 5816 5815 5814 5813 5812 5811 5810 5808 5807 5805 5803 5802 5800 5799 5799 5799 5798 5797 5796 5796 5795 5794 5793 5792 5793 5791 5790 5790 5790 5789 5788 5787 5786 5787 5787 5787 5787 5787 5787 5788 5789 5790 5790 5790 5790 5790 5790 5790 5790
5821 5822 5822 5823 5824 5824 5825 5826 5826 5827 5827 5828 5828 5827 5827 5828 5827 5827 5826 5826 5825 5824 5824 5823 5823 5823 5822 5821 5820 5820 5820 5819 5818 5817 5816 5815 5814 5813 5812 5812 5811 5809 5808 5807 5805 5803 5801 5799 5798 5797 5797 5796 5795 5794 5793 5793 5792 5791 5789 5789 5789 5789 5789 5788 5787 5786 5785 5784 5784 5784 5784 5784 5785 5785 5786 5786 5787 5787 5788 5788 5788 5788 5788 5788 5788
5818 5819 5820 5821 5821 5822 5823 5823 5824 5824 5825 5825 5825 5826 5826 5826 5825 5825 5824 5823 5823 5822 5822 5822 5821 5821 5820 5819 5818 5818 5817 5817 5816 5815 5814 5813 5812 5811 5810 5810 5809 5807 5806 5804 5803 5801 5799 5797 5796 5795 5794 5793 5792 5791 5790 5789 5789 5787 5787 5787 5786 5785 5787 5785 5783 5783 5783 5782 5782 5782 5781 5781 5782 5783 5784 5784 5784 5786 5786 5786 5786 5786 5786 5786 5786
5816 5817 5818 5819 5819 5820 5821 5821 5821 5822 5822 5822 5823 5823 5824 5823 5823 5823 5822 5821 5821 5820 5820 5819 5819 5818 5818 5817 5816 5816 5815 5814 5814 5812 5811 5810 5810 5809 5808 5807 5806 5805 5804 5802 5800 5798 5796 5795 5793 5793 5791 5790 5790 5789 5787 5786 5786 5785 5784 5784 5782 5782 5783 5782 5779 5780 5780 5779 5779 5779 5779 5779 5779 5780 5781 5781 5782 5783 5784 5783 5783 5783 5783 5784 5785
5814 5815 5816 5817 5818 5818 5819 5819 5819 5819 5820 5820 5820 5821 5821 5821 5821 5820 5820 5819 5818 5818 5818 5817 5816 5816 5815 5814 5813 5813 5812 5812 5811 5810 5809 5808 5807 5807 5806 5805 5804 5803 5801 5800 5798 5796 5794 5793 5792 5791 5790 5788 5788 5786 5784 5783 5783 5783 5781 5780 5779 5778 5778 5777 5776 5777 5776 5775 5776 5776 5776 5776 5776 5777 5778 5778 5779 5780 5780 5780 5781 5781 5781 5782 5783
5813 5814 5815 5815 5816 5816 5817 5817 5817 5817 5818 5818 5818 5818 5818 5818 5818 5818 5817 5816 5816 5815 5815 5815 5814 5814 5813 5812 5811 5810 5809 5809 5809 5808 5807 5806 5805 5804 5804 5803 5802 5801 5799 5797 5796 5794 5792 5790 5789 5788 5787 5786 5784 5784 5782 5779 5779 5779 5777 5777 5776 5774 5774 5773 5772 5773 5772 5772 5772 5772 5772 5773 5773 5774 5775 5775 5776 5777 5777 5778 5778 5779 5779 5780 5780
5811 5812 5813 5813 5814 5814 5815 5815 5815 5815 5816 5816 5816 5816 5816 5816 5816 5816 5815 5814 5814 5813 5813 5813 5812 5811 5811 5810 5809 5808 5807 5807 5806 5806 5805 5804 5803 5802 5801 5800 5799 5798 5797 5795 5794 5792 5790 5788 5786 5785 5784 5782 5781 5780 5779 5777 5775 5774 5773 5773 5773 5772 5770 5769 5769 5769 5768 5768 5768 5768 5769 5770 5770 5771 5772 5772 5772 5773 5774 5775 5776 5776 5777 5777 5778
5809 5810 5810 5811 5812 5812 5813 5813 5813 5814 5814 5814 5814 5814 5814 5814 5814 5813 5813 5812 5812 5811 5810 5810 5809 5809 5808 5807 5807 5806 5805 5804 5804 5803 5802 5801 5801 5800 5799 5798 5797 5796 5794 5793 5791 5790 5788 5786 5784 5783 5781 5780 5778 5777 5776 5774 5772 5770 5769 5769 5769 5768 5767 5766 5765 5765 5765 5765 5765 5765 5765 5765 5767 5768 5768 5768 5768 5769 5771 5772 5773 5774 5774 5775 5775
5807 5807 5808 5809 5809 5810 5810 5811 5812 5812 5812 5812 5812 5812 5811 5811 5811 5811 5811 5810 5809 5809 5808 5807 5806 5805 5805 5804 5803 5802 5802 5801 5801 5800 5799 5798 5797 5796 5796 5795 5794 5793 5791 5790 5788 5787 5785 5784 5782 5781 5779 5777 5776 5774 5773 5771 5769 5768 5765 5764 5764 5763 5762 5762 5762 5761 5761 5760 5761 5761 5761 5761 5763 5764 5764 5764 5765 5766 5768 5769 5770 5772 5772 5772 5773
5804 5805 5805 5806 5806 5807 5808 5809 5809 5810 5810 5810 5809 5809 5809 5809 5808 5808 5808 5807 5806 5805 5805 5804 5803 5802 5802 5801 5800 5799 5798 5798 5797 5797 5796 5795 5794 5793 5792 5791 5790 5789 5788 5787 5785 5784 5782 5781 5779 5777 5776 5774 5773 5771 5769 5768 5766 5765 5763 5761 5760 5759 5758 5758 5758 5758 5756 5755 5756 5757 5757 5757 5759 5760 5760 5761 5762 5763 5765 5767 5768 5769 5769 5770 5770